Weather observations for the past three days for
Rockland, Knox County Regional Airport
Imperial (Metric)
Date Time (edt) Wind (mph) Vis. (mi.) Weather Sky Cond. Temperature (ºF) Relative Humidity Wind Chill (°F) Heat Index (°F) Pressure Precipitation (in)
Air Dwpt 6 hour altimeter (in) sea level (mb) 1 hr 3 hr 6 hr
Max. Min.
15 04:56 W 3 10.00 A Few Clouds FEW065 64 64 100% 29.85 1010.8
15 03:56 W 5 10.00 Fair CLR 63 63 100% 29.85 1010.8
15 02:56 W 3 10.00 Fair CLR 66 64.9 96% 29.85 1010.8
15 01:56 W 3 10.00 Fair CLR 64.9 63 75.9 64 93% 29.87 1011.6
15 00:56 Calm 10.00 Fair CLR 66 64 93% 29.89 1012.2
14 23:56 Calm 10.00 Fair CLR 69.1 64 84% 29.9 1012.4
14 22:56 W 6 10.00 Fair CLR 71.1 62.1 73% 29.9 1012.6
14 21:56 W 6 10.00 Fair CLR 72 62.1 71% 29.9 1012.5
14 20:56 W 7 10.00 Fair CLR 73 62.1 69% 29.9 1012.4
14 19:56 SW 10 10.00 Fair CLR 75.9 62.1 87.1 75.9 62% 78 29.89 1012.1
14 18:56 SW 12 10.00 Fair CLR 79 64 60% 81 29.89 1012.0
14 17:56 SW 8 10.00 Fair CLR 82.9 66.9 59% 86 29.88 1011.9
14 16:56 SW 9 10.00 Fair CLR 84 68 59% 87 29.89 1012.2
14 15:56 SW 8 10.00 Mostly Cloudy BKN055 87.1 68 53% 91 29.9 1012.5
14 14:56 W 8 10.00 A Few Clouds FEW055 87.1 66.9 51% 90 29.91 1012.8
14 13:56 NW 7 10.00 Partly Cloudy SCT048 86 68 86 71.1 55% 89 29.92 1013.3
14 12:56 W 8 10.00 Fair CLR 84.9 69.1 59% 89 29.94 1013.8
14 11:56 W 8 10.00 Fair CLR 82.9 69.1 63% 87 29.95 1014.3
14 10:56 NW 7 G 17 10.00 Fair CLR 81 69.1 67% 84 29.97 1014.8
14 09:56 W 10 10.00 Fair CLR 79 69.1 72% 82 29.98 1015.0
14 08:56 W 8 10.00 Fair CLR 75.9 70 82% 77 29.98 1015.2
14 07:56 W 6 10.00 Fair CLR 71.1 68 71.1 62.1 90% 29.99 1015.6
14 06:56 SW 6 10.00 Fair CLR 68 68 100% 29.99 1015.4
14 05:56 W 6 1.25 Fog/Mist OVC002 66 66 100% 29.98 1015.2
14 04:56 W 6 0.25 Fog OVC002 66 66 100% 29.97 1015.0
14 03:56 Calm 0.25 Fog OVC002 64.9 64.9 100% 29.98 1015.1
14 02:56 Calm 10.00 Mostly Cloudy BKN002 64 64 100% 29.97 1014.9
14 01:56 Calm 10.00 Fair CLR 63 63 71.1 62.1 100% 29.99 1015.4
14 00:56 W 3 5.00 Fog/Mist CLR 64 64 100% 30 1016.0
13 23:56 Calm 10.00 Fair CLR 66 66 100% 30.02 1016.6
13 22:56 Calm 10.00 Fair CLR 66 66 100% 30.01 1016.3
13 21:56 W 5 10.00 A Few Clouds FEW120 68 68 100% 30 1016.0
13 20:56 Calm 10.00 A Few Clouds FEW008 70 69.1 97% 30.02 1016.5
13 19:56 NW 7 10.00 Overcast OVC006 71.1 70 80.1 70 96% 30.05 1017.5
13 18:56 W 13 G 20 10.00 Overcast OVC006 70 69.1 97% 30.03 1016.9
13 17:56 S 6 10.00 Fair CLR 72 70 94% 30.02 1016.6
13 16:56 S 8 10.00 Fair CLR 75.9 71.1 85% 76 30.02 1016.6
13 15:56 S 7 9.00 Fair CLR 78.1 71.1 79% 80 30.04 1017.3
13 14:56 S 9 10.00 Fair CLR 79 71.1 77% 82 30.06 1017.9
13 13:56 S 8 10.00 Fair CLR 78.1 70 80.1 70 76% 80 30.07 1018.1
13 12:56 S 8 10.00 Fair CLR 79 72 79% 82 30.09 1019.1
13 11:56 S 8 10.00 Overcast OVC100 73.9 70 88% 30.11 1019.6
13 10:56 Vrbl 6 10.00 Partly Cloudy SCT090 78.1 72 82% 80 30.11 1019.6
13 09:56 W 7 10.00 Mostly Cloudy BKN090 75 71.1 88% 75 30.12 1019.9
13 08:56 S 3 10.00 Overcast FEW055 BKN075 OVC120 70 69.1 97% 30.13 1020.3
13 07:56 SW 7 10.00 Partly Cloudy FEW039 SCT075 71.1 70 71.1 66.9 96% 30.14 1020.5
13 06:56 SW 6 10.00 Light Rain BKN090 69.1 69.1 100% 30.14 1020.5
13 05:56 W 5 10.00 Mostly Cloudy BKN070 68 68 100% 30.13 1020.2
13 04:56 SW 6 10.00 Mostly Cloudy FEW002 BKN070 66.9 66.9 100% 30.12 1020.1
13 03:56 SW 3 10.00 Mostly Cloudy BKN075 66.9 66.9 100% 30.12 1019.8
13 02:56 Calm 10.00 Overcast OVC065 69.1 69.1 100% 30.11 1019.6
13 01:56 SW 5 10.00 A Few Clouds FEW005 69.1 69.1 73.9 69.1 100% 30.12 1020.0
13 00:56 SW 8 10.00 Fair CLR 70 69.1 97% 30.13 1020.4
12 23:56 SW 5 10.00 Fair CLR 70 69.1 97% 30.13 1020.4
12 22:56 SW 12 10.00 Fair CLR 71.1 70 96% 30.13 1020.4
12 21:56 SW 10 10.00 Fair CLR 71.1 70 96% 30.13 1020.1
12 20:56 W 8 10.00 Fair CLR 71.1 69.1 94% 30.12 1020.1
12 19:56 SW 10 10.00 Fair CLR 73.9 69.1 81 73.9 85% 30.12 1019.8
12 18:56 SW 9 10.00 Fair CLR 77 70 79% 79 30.1 1019.4
12 17:56 S 9 10.00 Fair CLR 78.1 70 76% 80 30.1 1019.4
12 16:56 SW 10 10.00 Fair CLR 81 70 69% 84 30.1 1019.3
12 15:56 W 13 10.00 Fair CLR 80.1 70 71% 83 30.11 1019.7
12 14:56 S 9 10.00 Fair CLR 77 69.1 77% 79 30.12 1020.1
12 13:56 S 12 10.00 Fair CLR 77 69.1 79 72 77% 79 30.11 1019.7
12 12:56 S 8 10.00 Fair CLR 75.9 69.1 79% 77 30.12 1019.9
12 11:56 S 7 10.00 Fair CLR 78.1 70 76% 80 30.12 1020.1
12 10:56 S 9 10.00 Fair CLR 78.1 69.1 74% 80 30.13 1020.1
12 09:56 S 8 10.00 Fair CLR 75.9 69.1 79% 77 30.12 1019.9
12 08:56 S 9 10.00 Fair CLR 75.9 69.1 79% 77 30.12 1019.8
12 07:56 Vrbl 3 10.00 Fair CLR 72 68 72 62.1 87% 30.11 1019.7
12 06:56 SE 3 10.00 Fair CLR 68 64.9 90% 30.1 1019.1
12 05:56 W 3 10.00 Fair CLR 64.9 64.9 100% 30.08 1018.5
Date Time (edt) Wind (mph) Vis. (mi.) Weather Sky Cond. Air Dwpt Max. Min. Relative Humidity Wind Chill (°F) Heat Index (°F) altimeter (in) sea level (mb) 1 hr 3 hr 6 hr
6 hour
Temperature (ºF) Pressure Precipitation (in)